sat.trackr.live / text

‹ back to catalog

STARLINK-37082

NORAD 68182 · 2026-050R

PAYLOAD ACTIVE UNKNOWN

§ Identity

Operator
Country
US
Launch date
2026-03-14
Launch site
AFETR
Launch vehicle
Mass (kg)
RCS (m²)

Purposes: comms

External: N2YO · Heavens-Above · Gunter

§ Orbital elements

Epoch: 2026-09-20T00:43:38.898912Z

Period
93.85 min
Inclination
53.1594°
Eccentricity
0.0001113
Mean motion
15.34415125 rev/d
Perigee alt
461.9 km
Apogee alt
463.4 km
Semi-major
6,840.8 km
B*
8.1971e-4
RAAN
80.0849°
Arg perigee
60.8708°
Mean anomaly
299.2406°
Rev number
3,049

§ Raw data

STARLINK-370821 68182U 26050R   26263.03031133  .00027434  00000+0  81971-3 0  99992 68182  53.1594  80.0849 0001113  60.8708 299.2406 15.34415125 30497

JSON: /api/v1/satellites/68182 · /tle

For live sub-satellite position, see the globe view (requires WebGL).

§ Visibility from observer

Set your observer location to see the next 7 days of passes ≥ 10°. The values pass through the URL so the page stays shareable.

No JS? Fill the form by hand. The geolocation button needs JavaScript.